カタログに戻る

ARCTIC WEATHER SATELLITE

運用中気象SSO
NORAD 60543·PAYLOAD·🇳🇴 Norway

打ち上げ Aug 16, 2024 から Vandenberg Space Force Base

Loading…

次のパス (今後24時間)

TLE

最新Source: Space-Track

元期: Sep 14, 2026, 03:31 UTC

1 60543U 24149CD  26257.14673747  .00000626  00000-0  70782-4 0  9991
2 60543  97.6723 325.0318 0002762 143.5760 216.5646 14.89808947112540

AllMySatでARCTIC WEATHER SATELLITEをリアルタイム追跡

Download on the App Store